Location: Unspecified
(51.3304°N, 0.5782°E)
Time: 09:31:37
(UTC+01:00)

ISS - Pass Details

Date: 29 May 2022
Orbit: 414 x 420 km, 51.6° (Epoch: 01 July)

Event Time Altitude Azimuth Distance (km) Brightness Sun altitude
Rises 22:11:00 0° 281° (W) 2,370 0.9 -8.6°
Reaches altitude 10° 22:13:39 10° 260° (W) 1,500 -0.6 -8.8°
Maximum altitude 22:15:49 16° 219° (SW) 1,171 -1.6 -9.0°
Drops below altitude 10° 22:18:00 10° 178° (S) 1,490 -1.5 -9.2°
Enters shadow 22:18:09 - 176° (S) 1,534 -1.4 -9.2°
